Location: Hamburg
(53.5500°N, 10.0000°E)
Time: 05:45:14
(UTC+02:00)

A-11 Canister half - All Passes

Search period start: 26 June 2017 00:00
Search period end: 06 July 2017 00:00
Orbit: 1525 x 1684 km, 47.3° (Epoch: 25 June)

Date Brightness Start Highest point End Pass type
(mag) Time Alt. Az. Time Alt. Az. Time Alt. Az.
26 Jun - 08:40:57 10° SSE 08:44:23 12° SE 08:47:48 10° ESE daylight
26 Jun - 10:38:47 10° SSW 10:47:06 36° SSE 10:55:14 10° E daylight
26 Jun - 12:41:45 10° WSW 12:50:54 58° S 12:59:55 10° E daylight
26 Jun - 14:46:05 10° W 14:55:06 55° SSW 15:04:03 10° ESE daylight
26 Jun - 16:50:55 10° W 16:58:44 32° SW 17:06:34 10° SSE daylight
27 Jun - 08:20:06 10° SE 08:22:55 12° SE 08:25:43 10° ESE daylight
27 Jun - 10:17:19 10° SSW 10:25:35 35° SE 10:33:39 10° E daylight
27 Jun - 12:20:11 10° WSW 12:29:21 57° SSE 12:38:21 10° E daylight
27 Jun - 14:24:30 10° W 14:33:33 56° SSW 14:42:32 10° ESE daylight
27 Jun - 16:29:19 10° W 16:37:14 33° SW 16:45:09 10° SSE daylight
27 Jun - 18:39:01 10° WSW 18:39:44 10° WSW 18:40:27 10° SW daylight
28 Jun - 07:59:29 10° SE 08:01:27 11° SE 08:03:25 10° ESE daylight
28 Jun - 09:55:52 10° SSW 10:04:03 34° SE 10:12:04 10° E daylight
28 Jun - 11:58:38 10° WSW 12:07:48 56° SSE 12:16:47 10° E daylight
28 Jun - 14:02:55 10° W 14:12:00 57° SSW 14:21:00 10° ESE daylight
28 Jun - 16:07:43 10° W 16:15:44 34° SW 16:23:44 10° SSE daylight
28 Jun - 18:16:07 10° WSW 18:18:17 11° SW 18:20:26 10° SW daylight
29 Jun - 09:34:26 10° SSW 09:42:32 32° SE 09:50:28 10° E daylight
29 Jun - 11:37:04 10° WSW 11:46:15 56° SSE 11:55:14 10° E daylight
29 Jun - 13:41:21 10° W 13:50:27 57° S 13:59:27 10° ESE daylight
29 Jun - 15:46:06 10° W 15:54:12 35° SW 16:02:18 10° SSE daylight
29 Jun - 17:53:53 10° WSW 17:56:49 12° SW 17:59:46 10° SW daylight
30 Jun - 09:13:00 10° SSW 09:21:01 31° SE 09:28:52 10° E daylight
30 Jun - 11:15:31 10° WSW 11:24:41 55° SSE 11:33:40 10° E daylight
30 Jun - 13:19:45 10° W 13:28:54 58° S 13:37:55 10° ESE daylight
30 Jun - 15:24:30 10° W 15:32:42 36° SSW 15:40:52 10° SSE daylight
30 Jun - 17:31:50 10° WSW 17:35:22 13° SW 17:38:54 10° SSW daylight
01 Jul - 08:51:34 10° SSW 08:59:30 30° SE 09:07:16 10° E daylight
01 Jul - 10:53:57 10° WSW 11:03:08 54° SSE 11:12:07 10° E daylight
01 Jul - 12:58:10 10° W 13:07:21 59° S 13:16:23 10° ESE daylight
01 Jul - 15:02:54 10° W 15:11:11 37° SSW 15:19:25 10° SSE daylight
01 Jul - 17:09:52 10° W 17:13:55 14° SW 17:17:56 10° SSW daylight
02 Jul - 08:30:09 10° SSW 08:38:00 29° SE 08:45:40 10° E daylight
02 Jul - 10:32:24 10° WSW 10:41:35 54° SSE 10:50:33 10° E daylight
02 Jul - 12:36:35 10° W 12:45:48 59° S 12:54:50 10° ESE daylight
02 Jul - 14:41:18 10° W 14:49:40 39° SSW 14:57:58 10° SSE daylight
02 Jul - 16:48:00 10° W 16:52:26 14° SW 16:56:54 10° SSW daylight
03 Jul - 08:08:44 10° SSW 08:16:29 28° SE 08:24:03 10° E daylight
03 Jul - 10:10:51 10° SW 10:20:03 53° SSE 10:28:59 10° E daylight
03 Jul - 12:15:01 10° W 12:24:14 59° S 12:33:18 10° ESE daylight
03 Jul - 14:19:42 10° W 14:28:09 40° SSW 14:36:31 10° SE daylight
03 Jul - 16:26:09 10° W 16:30:59 15° SW 16:35:48 10° SSW daylight
04 Jul - 07:47:20 10° SSW 07:54:58 27° SE 08:02:26 10° E daylight
04 Jul - 09:49:18 10° SW 09:58:29 52° SSE 10:07:26 10° E daylight
04 Jul - 11:53:25 10° W 12:02:41 60° S 12:11:45 10° ESE daylight
04 Jul - 13:58:06 10° W 14:06:37 41° SSW 14:15:04 10° SE daylight
04 Jul - 16:04:21 10° W 16:09:30 16° SW 16:14:40 10° SSW daylight
05 Jul - 07:25:56 10° S 07:33:28 26° SE 07:40:49 10° E daylight
05 Jul - 09:27:45 10° SW 09:36:56 51° SSE 09:45:52 10° E daylight
05 Jul - 11:31:49 10° W 11:41:08 60° S 11:50:13 10° ESE daylight
05 Jul - 13:36:30 10° W 13:45:06 42° SSW 13:53:35 10° SE daylight
05 Jul - 15:42:35 10° W 15:48:03 17° SW 15:53:29 10° SSW daylight
